Location: Banff
(51.1667°N, 115.5667°W)
Time: 19:54:07
(UTC+00:00)

Vanguard 1 Rocket - Pass Details

Date: 02 December 2020
Orbit: 655 x 4221 km, 34.3° (Epoch: 17 January)

Event Time Altitude Azimuth Distance (km) Brightness Sun altitude
Exits shadow 13:36:12 14° 263° (W) 6,447 11.1 -16.4°
Maximum altitude 13:50:01 29° 218° (SW) 4,179 10.5 -14.3°
Drops below altitude 10° 14:00:23 10° 164° (SSE) 4,354 11.4 -12.8°
Sets 14:03:42 0° 152° (SSE) 4,916 11.9 -12.3°
